This demonstration page uses our WeatherBlox Daily Observations layout. Learn more.

Left ArrowRight Arrow

Hourly Observations for January 30, 2016

Temp ( °F °C ) Dew Point ( °F °C ) Humidity (%) Winds ( mph kmh ) Pressure ( in mb ) Visibility ( mi km ) Precip ( " mm )
12:54 am 00:54 Clear 29 -1.7 27 -2.8 92 92 Calm 29.72 1007 10 16 0.00 0.00
1:54 am 01:54 Clear 30 -1.1 27 -2.8 88 88 Calm 29.70 1006 10 16 0.00 0.00
2:54 am 02:54 Clear 27 -2.8 25 -3.9 92 92 Calm 29.70 1006 10 16 0.00 0.00
3:54 am 03:54 Clear 28 -2.2 26 -3.3 92 92 Calm 29.70 1006 10 16 0.00 0.00
4:54 am 04:54 Clear 30 -1.1 28 -2.2 92 92 SSE 5 7 29.69 1005 10 16 0.00 0.00
5:54 am 05:54 Clear 29 -1.7 26 -3.3 89 89 SE 3 6 29.70 1006 10 16 0.00 0.00
6:54 am 06:54 Clear 29 -1.7 27 -2.8 92 92 SSE 3 6 29.72 1006 10 16 0.00 0.00
7:54 am 07:54 Sunny 30 -1.1 28 -2.2 92 92 SSE 6 9 29.71 1006 10 16 0.00 0.00
8:54 am 08:54 Sunny 32 0 30 -1.1 92 92 SSE 5 7 29.70 1006 10 16 0.00 0.00
9:54 am 09:54 Sunny 37 2.8 33 0.6 86 86 S 3 6 29.70 1006 10 16 0.00 0.00
10:54 am 10:54 Sunny 43 6.1 35 1.7 74 74 S 12 19 29.66 1005 10 16 0.00 0.00
11:54 am 11:54 Sunny 45 7.2 35 1.7 68 68 S 12 19 29.65 1004 10 16 0.00 0.00
12:54 pm 12:54 Sunny 49 9.4 38 3.3 66 66 SSW 9 15 29.62 1003 10 16 0.00 0.00
1:54 pm 13:54 Sunny 52 11.1 38 3.3 59 59 S 12 19 29.57 1001 10 16 0.00 0.00
2:54 pm 14:54 Sunny 52 11.1 38 3.3 59 59 SSW 13 20 29.56 1001 10 16 0.00 0.00
3:54 pm 15:54 Sunny 52 11.1 39 3.9 61 61 Calm 29.57 1002 10 16 0.00 0.00
4:54 pm 16:54 Sunny 48 8.9 38 3.3 68 68 Calm 29.58 1002 10 16 0.00 0.00
5:54 pm 17:54 Clear 41 5 35 1.7 79 79 NE 3 6 29.59 1002 10 16 0.00 0.00
6:54 pm 18:54 Clear 42 5.6 36 2.2 79 79 WSW 3 6 29.60 1002 10 16 0.00 0.00
7:54 pm 19:54 Clear 38 3.3 34 1.1 86 86 N 8 13 29.61 1003 10 16 0.00 0.00
8:54 pm 20:54 Clear 38 3.3 34 1.1 86 86 Calm 29.60 1002 10 16 0.00 0.00
9:54 pm 21:54 Clear 36 2.2 33 0.6 89 89 N 7 11 29.60 1002 10 16 0.00 0.00
10:54 pm 22:54 Clear 38 3.3 34 1.1 86 86 NNW 12 19 29.61 1003 10 16 0.00 0.00
11:54 pm 23:54 Clear 37 2.8 33 0.6 86 86 N 13 20 29.62 1003 10 16 0.00 0.00

Powered by AerisWeather